IW0DNR Weather Reports


time (UTC)temp
C
wind
direction
speed
KPH
gust
KPH
rain 1hr
cm
rain 24hr
cm
rain mn
cm
humidity
%
barometer
mb
20260507234537 20 60 1.6 4.8 0.00 0.00 0.00 61 1008.5
20260507233024 20 22 1.6 6.4 0.00 0.00 0.00 61 1008.7
20260507231523 20 49 1.6 6.4 0.00 0.00 0.00 61 1008.9
20260507230021 20 29 1.6 4.8 0.00 0.00 0.00 62 1008.9
20260507224525 20 336 0.0 4.8 0.00 0.00 0.00 62 1009.2
20260507223019 20 49 3.2 6.4 0.00 0.00 0.00 62 1009.3
20260507221517 20 56 1.6 6.4 0.00 0.00 0.00 62 1009.3
20260507220015 20 13 0.0 4.8 0.00 0.00 0.00 62 1009.3
20260507214522 20 15 0.0 3.2 0.00 0.00 0.00 63 1009.2
20260507213017 20 15 0.0 6.4 0.00 0.00 0.00 63 1009.2
20260507211514 20 30 3.2 6.4 0.00 0.00 0.00 63 1009.1
20260507210013 20 28 1.6 6.4 0.00 0.00 0.00 64 1009.2
20260507204513 20 61 1.6 6.4 0.00 0.03 0.00 66 1009.5
20260507203014 19 25 3.2 12.9 0.00 0.03 0.00 69 1009.4
20260507201511 18 17 3.2 6.4 0.00 0.03 0.00 71 1009.7
20260507200011 19 126 0.0 1.6 0.00 0.03 0.00 71 1009.7
20260507194510 19 126 3.2 8.0 0.00 0.03 0.00 69 1009.8
20260507193008 19 153 0.0 3.2 0.00 0.03 0.00 68 1009.6
20260507191509 19 198 0.0 4.8 0.00 0.03 0.00 70 1009.5
20260507190007 19 198 0.0 0.0 0.00 0.03 0.00 71 1009.4
20260507184507 19 198 0.0 1.6 0.00 0.03 0.00 71 1009.4
20260507183006 19 198 0.0 0.0 0.00 0.03 0.00 69 1009.3
20260507181506 19 198 0.0 1.6 0.00 0.03 0.00 68 1009.3
20260507180006 20 198 0.0 1.6 0.00 0.03 0.00 67 1009.3
20260507174504 20 198 0.0 1.6 0.00 0.03 0.00 66 1009.4
20260507173005 20 198 0.0 4.8 0.00 0.03 0.00 65 1009.4
20260507171503 21 209 3.2 6.4 0.00 0.03 0.00 64 1009.3
20260507170003 21 210 0.0 4.8 0.00 0.03 0.00 63 1009.3
20260507164502 22 15 0.0 4.8 0.00 0.03 0.00 64 1009.4
20260507163001 22 15 0.0 4.8 0.00 0.03 0.00 63 1009.3
20260507161601 22 46 0.0 4.8 0.00 0.03 0.00 61 1009.4
20260507160059 23 311 1.6 3.2 0.00 0.03 0.00 60 1009.7
20260507154555 22 313 0.0 4.8 0.00 0.03 0.00 60 1009.9
20260507153054 22 317 1.6 4.8 0.00 0.03 0.00 58 1009.9
20260507151552 22 240 0.0 6.4 0.00 0.03 0.00 58 1010.0
20260507150052 22 247 1.6 8.0 0.00 0.03 0.00 57 1010.1
20260507144613 22 180 1.6 6.4 0.00 0.03 0.00 58 1010.2
20260507143052 21 242 3.2 8.0 0.00 0.03 0.00 59 1010.4
20260507141609 21 225 3.2 9.7 0.00 0.03 0.00 59 1010.4
20260507140048 21 232 4.8 12.9 0.00 0.03 0.00 60 1010.7
20260507134548 21 251 4.8 11.3 0.00 0.03 0.00 61 1010.8
20260507133042 21 175 4.8 11.3 0.00 0.03 0.00 63 1011.2
20260507131543 21 209 3.2 11.3 0.00 0.03 0.00 64 1011.1
20260507130040 21 162 3.2 12.9 0.00 0.03 0.00 62 1011.1
20260507124539 21 212 6.4 11.3 0.00 0.03 0.00 62 1011.3
20260507123037 21 216 4.8 11.3 0.00 0.03 0.00 61 1011.5
20260507121536 21 244 6.4 11.3 0.00 0.03 0.00 61 1011.6
20260507120034 21 221 3.2 12.9 0.00 0.03 0.00 60 1011.8
20260507114535 22 246 6.4 11.3 0.00 0.03 0.00 57 1011.8
20260507113029 21 265 6.4 14.5 0.00 0.03 0.00 60 1011.9
20260507111628 21 188 4.8 11.3 0.00 0.03 0.00 63 1012.0
20260507110027 20 219 4.8 11.3 0.00 0.03 0.00 63 1012.2
20260507104527 21 254 3.2 12.9 0.00 0.03 0.00 63 1012.4
20260507103025 20 219 3.2 14.5 0.00 0.03 0.00 65 1012.7
20260507101527 20 205 8.0 16.1 0.00 0.03 0.00 66 1012.9
20260507100033 20 252 4.8 19.3 0.00 0.03 0.00 67 1012.8
20260507094535 21 200 6.4 16.1 0.00 0.03 0.00 61 1012.6
20260507093027 21 137 3.2 8.0 0.00 0.03 0.00 58 1012.4
20260507091526 21 288 1.6 6.4 0.00 0.03 0.00 61 1012.3
20260507090019 20 109 0.0 6.4 0.00 0.03 0.00 63 1012.2
20260507084522 20 210 3.2 6.4 0.00 0.03 0.00 63 1012.6
20260507083012 20 305 0.0 4.8 0.00 0.03 0.00 63 1012.7
20260507081518 19 138 1.6 6.4 0.00 0.03 0.00 67 1012.6
20260507080007 18 248 1.6 6.4 0.00 0.03 0.00 68 1012.6
20260507074507 18 313 1.6 9.7 0.00 0.03 0.00 68 1012.9
20260507073007 18 205 0.0 8.0 0.00 0.03 0.00 67 1013.0
20260507071502 18 278 0.0 6.4 0.00 0.03 0.00 69 1012.8
20260507064555 17 22 3.2 9.7 0.00 0.03 0.00 73 1012.6
20260507063054 17 10 4.8 9.7 0.00 0.03 0.00 75 1012.3
20260507061549 16 26 1.6 6.4 0.00 0.03 0.00 77 1012.5
20260507060056 16 351 3.2 6.4 0.00 0.03 0.00 78 1012.6
20260507054549 15 351 1.6 8.0 0.00 0.03 0.00 79 1012.7
20260507053051 15 34 1.6 6.4 0.00 0.03 0.00 80 1012.7
20260507051542 15 15 0.0 4.8 0.00 0.03 0.00 80 1012.7
20260507050042 15 360 0.0 4.8 0.00 0.03 0.00 80 1012.6
20260507044554 15 360 1.6 6.4 0.00 0.03 0.00 81 1012.5
20260507043040 15 31 1.6 9.7 0.00 0.03 0.00 81 1012.3
20260507041539 15 12 3.2 9.7 0.00 0.03 0.00 82 1012.3
20260507040039 15 355 1.6 9.7 0.00 0.03 0.00 81 1012.1
20260507034541 15 26 1.6 9.7 0.00 0.03 0.00 81 1012.1
20260507033037 15 348 3.2 8.0 0.00 0.03 0.00 81 1012.1
20260507031537 15 24 3.2 8.0 0.00 0.03 0.00 80 1012.0
20260507030035 15 5 0.0 4.8 0.00 0.03 0.00 81 1012.0
20260507024540 15 52 0.0 3.2 0.00 0.03 0.00 80 1012.1
20260507023033 15 33 1.6 4.8 0.00 0.03 0.00 80 1012.3
20260507021532 15 63 0.0 4.8 0.00 0.03 0.00 80 1012.3
20260507020042 15 72 0.0 3.2 0.00 0.03 0.00 80 1012.4
20260507014534 15 70 0.0 3.2 0.00 0.03 0.00 82 1012.4
20260507013031 15 71 0.0 3.2 0.00 0.03 0.00 84 1012.5
20260507011528 15 71 0.0 0.0 0.00 0.03 0.00 85 1012.5
20260507010029 15 71 0.0 3.2 0.00 0.03 0.00 86 1012.4
20260507004531 15 360 0.0 1.6 0.00 0.03 0.00 86 1012.5
20260507003029 15 72 0.0 4.8 0.00 0.03 0.00 86 1012.4
20260507001534 15 360 1.6 4.8 0.00 0.03 0.00 86 1012.4
20260507000024 15 360 0.0 3.2 0.00 0.03 0.00 86 1012.5